Volver al catálogo

INTELSAT 11

PAS 11

ActivoComunicacionesGEO
NORAD 32253·PAYLOAD· XX

Lanzado Oct 5, 2007 desde Guiana Space Centre

Loading…

TLE

ActualizadoSource: CelesTrak SupGP

Época: Sep 14, 2026, 00:00 UTC

1 32253C 07044B   26257.00000000 -.00000158  00000+0  00000+0 0  2572
2 32253   3.7902  77.5454 0008375 119.5893 251.1729  0.99053806    17

Sigue INTELSAT 11 en tiempo real con AllMySat

Download on the App Store